Rifle, CO

2:47 PM MDT on March 30, 2017 (GMT -0600)
Garfield County Regional

Weather History for KRIL - June, 2011

Change the Weather History Date:

Tuesday, June 7, 2011

  Actual Average Record
Temperature  
Mean Temperature 62 °F 63 °F  
Max Temperature 79 °F 82 °F 96 °F (2002)
Min Temperature 45 °F 45 °F 28 °F (1937)
Degree Days  
Heating Degree Days 3 3  
Month to date heating degree days 28  
Since 1 June heating degree days 28  
Since 1 July heating degree days 6594  
Cooling Degree Days 0 2  
Month to date cooling degree days 10  
Year to date cooling degree days 17  
Since 1 June cooling degree days 10  
Growing Degree Days 12 (Base 50)    
Moisture  
Dew Point 19 °F    
Average Humidity 20    
Maximum Humidity 41    
Minimum Humidity 10    
Precipitation  
Precipitation 0.00 in 0.04 in 1.98 in (1984)
Month to date precipitation 0.29  
Year to date precipitation 5.71  
Sea Level Pressure  
Sea Level Pressure 29.77 in    
Wind  
Wind Speed 8 mph (WSW)    
Max Wind Speed 22 mph    
Max Gust Speed 32 mph    
Visibility 10 miles    
Events      
T = Trace of Precipitation, MM = Missing Value Source: NWS Daily Summary

Daily Weather History Graph

Daily Weather History Graph

Search for Another Location

Airport or City:

Trip Planner

Search our weather history database for the weather conditions in past years. The results will help you decide how hot, cold, wet, or windy it might be!

Date:

Astronomy

Jun. 07, 2011 Rise Set
Actual Time 5:43 AM MDT 8:36 PM MDT
Civil Twilight 5:11 AM MDT 9:08 PM MDT
Nautical Twilight 4:31 AM MDT 9:48 PM MDT
Astronomical Twilight 3:44 AM MDT 10:35 PM MDT
Moon 11:42 AM MDT (6/7) 12:14 AM MDT (6/7)
Length of Visible Light 15h 56m
Length of Day
14h 52m
Waxing Crescent, 35% of the Moon is Illuminated
Jun 7
Waxing Crescent
Jun 8
First Quarter
Jun 15
Full
Jun 23
Last Quarter
Jul 1
New

Hourly Weather History & Observations

Time (MDT) Temp. Windchill Dew Point Humidity Pressure Visibility Wind Dir Wind Speed Gust Speed Precip Events Conditions
12:53 AM 64.9 °F - 12.0 °F 13% 29.70 in 10.0 mi West 3.5 mph - N/A   Clear
1:53 AM 64.0 °F - 9.0 °F 12% 29.70 in 10.0 mi SW 5.8 mph - N/A   Clear
2:53 AM 55.0 °F - 19.9 °F 25% 29.73 in 10.0 mi ESE 3.5 mph - N/A   Clear
3:53 AM 50.0 °F - 21.0 °F 32% 29.75 in 10.0 mi South 5.8 mph - N/A   Clear
4:53 AM 48.0 °F - 21.0 °F 34% 29.78 in 10.0 mi ESE 4.6 mph - N/A   Clear
5:53 AM 45.0 °F 43.5 °F 19.9 °F 37% 29.81 in 10.0 mi East 3.5 mph - N/A   Clear
6:53 AM 48.0 °F - 24.1 °F 39% 29.83 in 10.0 mi Calm Calm - N/A   Clear
7:53 AM 52.0 °F - 28.9 °F 41% 29.83 in 10.0 mi Calm Calm - N/A   Clear
8:53 AM 60.1 °F - 24.1 °F 25% 29.81 in 10.0 mi Calm Calm - N/A   Clear
9:53 AM 64.9 °F - 21.9 °F 19% 29.81 in 10.0 mi WNW 11.5 mph - N/A   Clear
10:53 AM 70.0 °F - 19.9 °F 15% 29.79 in 10.0 mi West 11.5 mph - N/A   Clear
11:53 AM 73.0 °F - 17.1 °F 12% 29.76 in 10.0 mi West 18.4 mph - N/A   Clear
12:53 PM 75.9 °F - 16.0 °F 10% 29.75 in 10.0 mi West 16.1 mph 25.3 mph N/A   Clear
1:53 PM 77.0 °F - 15.1 °F 10% 29.74 in 10.0 mi West 21.9 mph 32.2 mph N/A   Clear
2:53 PM 78.1 °F - 16.0 °F 10% 29.75 in 10.0 mi West 20.7 mph 31.1 mph N/A   Clear
3:53 PM 79.0 °F - 17.1 °F 10% 29.75 in 10.0 mi West 15.0 mph 25.3 mph N/A   Clear
4:53 PM 79.0 °F - 17.1 °F 10% 29.74 in 10.0 mi West 17.3 mph - N/A   Clear
5:53 PM 78.1 °F - 17.1 °F 10% 29.75 in 10.0 mi West 17.3 mph - N/A   Clear
6:53 PM 77.0 °F - 16.0 °F 10% 29.74 in 10.0 mi West 16.1 mph 24.2 mph N/A   Clear
7:53 PM 73.9 °F - 19.0 °F 13% 29.75 in 10.0 mi West 10.4 mph - N/A   Clear
8:53 PM 68.0 °F - 19.9 °F 16% 29.76 in 10.0 mi West 9.2 mph - N/A   Clear
9:53 PM 62.1 °F - 21.9 °F 21% 29.80 in 10.0 mi SE 6.9 mph - N/A   Clear
10:53 PM 55.9 °F - 25.0 °F 30% 29.83 in 10.0 mi East 5.8 mph - N/A   Clear
11:53 PM 53.1 °F - 26.1 °F 35% 29.84 in 10.0 mi SSE 5.8 mph - N/A   Clear